User: anonymous   Login
Location: Unspecified
(0.0000°N, 0.0000°E)
Time: 12:45:54
(UTC+02:00)
Language:

H-2A R/B - Orbit

View from above orbital plane
View from above orbital plane
View from above satellite
View from above satellite

Ground track
Ground track

The orbit data is extracted from the following two-line orbital elements,

1 26899U 01038B   17142.03813651 +.00002724 +00000-0 +69963-3 0  9999
2 26899 028.2377 075.3663 7127408 171.5264 214.9513 02.47936614135860
Epoch (UTC): 22 May 2017 00:54:54
Eccentricity: 0.7127408
inclination: 28.2377°
perigee height: 246 km
apogee height: 33116 km
right ascension of ascending node: 75.3663°
argument of perigee: 171.5264°
revolutions per day: 2.47936614
mean anomaly at epoch: 214.9513°
orbit number at epoch: 13586

The dashed part of the orbit path shows where the satellite is in the earth's shadow,  

DLR